New Richmond, WI

6:05 AM CDT on May 27, 2017 (GMT -0500)
New Richmond Municipal

Weather History for KRNH - December, 2013

Change the Weather History Date:

Tuesday, December 17, 2013

  Actual Average (KSTP) Record (KSTP)
Temperature  
Mean Temperature 16 °F -  
Max Temperature 29 °F 26 °F 44 °F (1997)
Min Temperature 3 °F 11 °F -9 °F (2016)
Degree Days  
Heating Degree Days 49    
Moisture  
Dew Point 15 °F    
Average Humidity 77    
Maximum Humidity 96    
Minimum Humidity 62    
Precipitation  
Precipitation 0.00 in - - ()
Sea Level Pressure  
Sea Level Pressure 29.94 in    
Wind  
Wind Speed 13 mph (West)    
Max Wind Speed 24 mph    
Max Gust Speed 30 mph    
Visibility 10 miles    
Events Snow    
Averages and records for this station are not official NWS values.
T = Trace of Precipitation, MM = Missing Value Source: NWS Daily Summary

Daily Weather History Graph

Daily Weather History Graph

Search for Another Location

Airport or City:

Trip Planner

Search our weather history database for the weather conditions in past years. The results will help you decide how hot, cold, wet, or windy it might be!

Date:

Astronomy

Dec. 17, 2013 Rise Set
Actual Time 7:43 AM CST 4:29 PM CST
Civil Twilight 7:09 AM CST 5:03 PM CST
Nautical Twilight 6:32 AM CST 5:40 PM CST
Astronomical Twilight 5:56 AM CST 6:16 PM CST
Moon 5:12 PM CST (12/17) 7:37 AM CST (12/17)
Length of Visible Light 9h 53m
Length of Day
8h 45m
Full, 100% of the Moon is Illuminated
Dec 17
Full
Dec 25
Last Quarter
Jan 1
New
Jan 7
First Quarter
Jan 15
Full

Hourly Weather History & Observations

Time (CST) Temp. Windchill Dew Point Humidity Pressure Visibility Wind Dir Wind Speed Gust Speed Precip Events Conditions
12:15 AM 17.6 °F 7.3 °F 16.0 °F 93% 29.85 in 7.0 mi SW 8.1 mph - N/A   Overcast
12:35 AM 18.9 °F 7.2 °F 17.8 °F 96% 29.84 in 4.0 mi SW 10.4 mph - N/A Snow Light Snow
12:55 AM 20.3 °F 9.0 °F 19.2 °F 96% 29.83 in 7.0 mi SW 10.4 mph - N/A   Overcast
1:15 AM 21.9 °F 12.5 °F 21.0 °F 96% 29.82 in 10.0 mi WSW 8.1 mph - N/A   Overcast
1:35 AM 22.3 °F 12.2 °F 20.8 °F 94% 29.82 in 10.0 mi WSW 9.2 mph - N/A   Mostly Cloudy
1:55 AM 25.5 °F 14.3 °F 22.8 °F 89% 29.82 in 10.0 mi WSW 12.7 mph - N/A   Overcast
2:15 AM 26.8 °F 15.4 °F 23.2 °F 86% 29.81 in 10.0 mi West 13.8 mph - N/A   Overcast
2:35 AM 27.3 °F 15.6 °F 23.4 °F 85% 29.82 in 10.0 mi WSW 15.0 mph - N/A   Overcast
2:55 AM 27.9 °F 15.9 °F 24.1 °F 86% 29.82 in 10.0 mi WSW 16.1 mph - N/A   Overcast
3:15 AM 28.4 °F 17.5 °F 24.6 °F 86% 29.82 in 10.0 mi WSW 13.8 mph - N/A   Overcast
3:35 AM 29.1 °F 20.0 °F 25.5 °F 86% 29.82 in 10.0 mi West 10.4 mph - N/A   Overcast
3:55 AM 29.3 °F 19.1 °F 26.2 °F 88% 29.82 in 10.0 mi West 12.7 mph - N/A   Overcast
4:15 AM 28.6 °F 18.7 °F 25.5 °F 88% 29.82 in 10.0 mi West 11.5 mph - N/A   Mostly Cloudy
4:35 AM 28.8 °F 20.2 °F 26.2 °F 90% 29.82 in 10.0 mi West 9.2 mph - N/A   Mostly Cloudy
4:55 AM 29.3 °F 20.8 °F 25.9 °F 87% 29.83 in 10.0 mi West 9.2 mph - N/A   Overcast
5:15 AM 28.9 °F 19.8 °F 25.7 °F 88% 29.83 in 10.0 mi West 10.4 mph - N/A   Overcast
5:35 AM 29.1 °F 19.4 °F 25.3 °F 86% 29.83 in 10.0 mi West 11.5 mph 18.4 mph N/A   Overcast
5:55 AM 28.0 °F 17.5 °F 24.6 °F 87% 29.84 in 10.0 mi West 12.7 mph - N/A   Scattered Clouds
6:15 AM 26.6 °F 16.8 °F 23.5 °F 88% 29.85 in 10.0 mi West 10.4 mph - N/A   Clear
6:35 AM 26.4 °F 16.6 °F 23.2 °F 88% 29.86 in 10.0 mi West 10.4 mph - N/A   Clear
6:55 AM 26.8 °F 16.5 °F 24.1 °F 90% 29.86 in 10.0 mi West 11.5 mph 17.3 mph N/A   Scattered Clouds
7:15 AM 27.9 °F 16.8 °F 24.4 °F 87% 29.86 in 10.0 mi West 13.8 mph - N/A   Overcast
7:35 AM 27.0 °F 14.7 °F 23.4 °F 86% 29.87 in 10.0 mi West 16.1 mph - N/A   Mostly Cloudy
7:55 AM 27.0 °F 15.6 °F 22.8 °F 84% 29.87 in 10.0 mi West 13.8 mph 21.9 mph N/A   Scattered Clouds
8:15 AM 26.2 °F 14.7 °F 22.3 °F 85% 29.87 in 10.0 mi West 13.8 mph - N/A   Scattered Clouds
8:35 AM 27.3 °F 15.6 °F 22.3 °F 81% 29.88 in 10.0 mi West 15.0 mph 19.6 mph N/A   Mostly Cloudy
8:55 AM 27.3 °F 14.8 °F 21.6 °F 79% 29.88 in 10.0 mi West 17.3 mph 20.7 mph N/A   Overcast
9:15 AM 27.3 °F 15.2 °F 21.0 °F 77% 29.90 in 10.0 mi West 16.1 mph - N/A   Overcast
9:35 AM 27.1 °F 14.9 °F 20.7 °F 77% 29.90 in 10.0 mi West 16.1 mph 26.5 mph N/A   Overcast
9:55 AM 27.0 °F 14.7 °F 20.3 °F 76% 29.92 in 10.0 mi West 16.1 mph 23.0 mph N/A   Overcast
10:15 AM 27.0 °F 15.6 °F 19.8 °F 74% 29.92 in 10.0 mi WNW 13.8 mph 21.9 mph N/A   Overcast
10:35 AM 27.1 °F 13.8 °F 19.2 °F 72% 29.92 in 10.0 mi WNW 19.6 mph 23.0 mph N/A   Overcast
10:55 AM 27.3 °F 15.6 °F 19.0 °F 71% 29.92 in 10.0 mi WNW 15.0 mph 20.7 mph N/A   Overcast
11:15 AM 27.7 °F 15.2 °F 18.9 °F 69% 29.91 in 10.0 mi WNW 17.3 mph 20.7 mph N/A   Overcast
11:35 AM 27.9 °F 14.7 °F 18.5 °F 68% 29.91 in 10.0 mi WNW 19.6 mph 25.3 mph N/A   Overcast
11:55 AM 28.0 °F 17.0 °F 17.8 °F 65% 29.91 in 10.0 mi WNW 13.8 mph 26.5 mph N/A   Overcast
12:15 PM 27.9 °F 14.7 °F 17.4 °F 65% 29.91 in 5.0 mi WNW 19.6 mph 25.3 mph N/A   Haze
12:35 PM 27.1 °F 13.4 °F 16.7 °F 65% 29.91 in 10.0 mi WNW 20.7 mph 25.3 mph N/A   Mostly Cloudy
12:55 PM 27.1 °F 14.1 °F 17.4 °F 67% 29.91 in 10.0 mi West 18.4 mph 28.8 mph N/A   Overcast
1:15 PM 25.9 °F 11.4 °F 15.8 °F 66% 29.91 in 10.0 mi West 21.9 mph 28.8 mph N/A   Overcast
1:35 PM 25.3 °F 12.2 °F 15.6 °F 67% 29.92 in 10.0 mi West 17.3 mph 25.3 mph N/A   Mostly Cloudy
1:55 PM 25.7 °F 10.8 °F 16.3 °F 68% 29.92 in 10.0 mi WNW 23.0 mph 28.8 mph N/A   Overcast
2:15 PM 24.3 °F 8.9 °F 15.1 °F 68% 29.93 in 7.0 mi WNW 23.0 mph 29.9 mph N/A   Overcast
2:35 PM 23.0 °F 7.6 °F 12.4 °F 64% 29.94 in 7.0 mi West 21.9 mph 28.8 mph N/A   Mostly Cloudy
2:55 PM 23.5 °F 9.0 °F 12.4 °F 62% 29.95 in 10.0 mi WNW 19.6 mph 27.6 mph N/A   Mostly Cloudy
3:15 PM 21.2 °F 5.6 °F 10.6 °F 64% 29.96 in 10.0 mi WNW 20.7 mph 27.6 mph N/A   Scattered Clouds
3:35 PM 20.8 °F 4.0 °F 9.9 °F 63% 29.97 in 7.0 mi WNW 24.2 mph 28.8 mph N/A   Clear
3:55 PM 20.1 °F 4.2 °F 9.3 °F 63% 29.99 in 10.0 mi WNW 20.7 mph 25.3 mph N/A   Scattered Clouds
4:15 PM 19.2 °F 5.8 °F 9.1 °F 65% 30.00 in 10.0 mi WNW 13.8 mph - N/A   Scattered Clouds
4:35 PM 18.3 °F 4.1 °F 9.1 °F 67% 30.01 in 10.0 mi WNW 15.0 mph 24.2 mph N/A   Scattered Clouds
4:55 PM 17.4 °F 4.1 °F 8.2 °F 67% 30.02 in 10.0 mi WNW 12.7 mph 20.7 mph N/A   Scattered Clouds
5:15 PM 16.7 °F 2.0 °F 7.3 °F 67% 30.02 in 10.0 mi WNW 15.0 mph 23.0 mph N/A   Clear
5:35 PM 16.2 °F 0.8 °F 6.8 °F 67% 30.03 in 10.0 mi WNW 16.1 mph 24.2 mph N/A   Clear
5:55 PM 15.6 °F -0.9 °F 6.4 °F 67% 30.04 in 10.0 mi WNW 18.4 mph 23.0 mph N/A   Clear
6:15 PM 14.9 °F -0.8 °F 5.9 °F 68% 30.04 in 10.0 mi WNW 16.1 mph 20.7 mph N/A   Clear
6:35 PM 14.2 °F -0.6 °F 5.7 °F 69% 30.05 in 10.0 mi WNW 13.8 mph - N/A   Clear
6:55 PM 14.0 °F -0.8 °F 5.5 °F 69% 30.06 in 10.0 mi WNW 13.8 mph 19.6 mph N/A   Clear
7:15 PM 13.5 °F -0.9 °F 5.2 °F 70% 30.07 in 10.0 mi WNW 12.7 mph 17.3 mph N/A   Clear
7:35 PM 13.1 °F 0.1 °F 4.8 °F 70% 30.06 in 10.0 mi WNW 10.4 mph - N/A   Clear
7:55 PM 12.9 °F 0.7 °F 4.6 °F 70% 30.06 in 10.0 mi WNW 9.2 mph - N/A   Clear
8:15 PM 11.3 °F -2.9 °F 4.1 °F 73% 30.06 in 10.0 mi West 11.5 mph - N/A   Clear
8:35 PM 11.3 °F -1.3 °F 3.7 °F 72% 30.07 in 10.0 mi West 9.2 mph - N/A   Clear
8:55 PM 10.6 °F -1.3 °F 3.2 °F 72% 30.07 in 10.0 mi WNW 8.1 mph - N/A   Clear
9:15 PM 9.5 °F -1.5 °F 2.7 °F 74% 30.07 in 10.0 mi West 6.9 mph - N/A   Clear
9:35 PM 8.8 °F -1.1 °F 2.3 °F 75% 30.08 in 10.0 mi West 5.8 mph - N/A   Clear
9:55 PM 8.1 °F -2.0 °F 1.9 °F 76% 30.09 in 10.0 mi West 5.8 mph - N/A   Clear
10:15 PM 7.2 °F -4.3 °F 1.4 °F 77% 30.08 in 10.0 mi West 6.9 mph - N/A   Clear
10:35 PM 7.3 °F -4.1 °F 2.1 °F 79% 30.08 in 10.0 mi West 6.9 mph - N/A   Clear
10:55 PM 6.8 °F -4.8 °F 1.4 °F 79% 30.07 in 10.0 mi West 6.9 mph - N/A   Clear
11:15 PM 6.3 °F -0.7 °F 1.4 °F 80% 30.07 in 10.0 mi West 3.5 mph - N/A   Clear
11:35 PM 3.4 °F - -0.6 °F 84% 30.07 in 10.0 mi Calm Calm - N/A   Clear
11:55 PM 3.9 °F - 0.9 °F 87% 30.06 in 10.0 mi Calm Calm - N/A   Clear